Skip Page Navigation
NASA JPL Caltech
NASA Logo - Jet Propulsion Laboratory + View the NASA Portal
+ Center for Near-Earth Object Studies
JPL Home Earth Solar System Stars & Galaxies Technology
JPL Solar System Dynamics
BODIES ORBITS EPHEMERIDES TOOLS PHYSICAL DATA DISCOVERY FAQ SITE MAP
JPL Small-Body Database Browser
Search: [ help ]  
228587 (2002 AP7)
Classification: Amor [NEO]          SPK-ID: 2228587
Ephemeris | Orbit Diagram | Orbital Elements | Mission Design | Physical Parameters | Discovery Circumstances | Close-Approach Data ]

[ hide orbit diagram ]

For accurate long-term ephemerides, please instead use our Horizons system.This orbit viewer was implemented using two-body methods, and hence should not be used for determining accurate long-term trajectories (over several years or decades) or planetary encounter circumstances.


[ revert to old Java-based viewer ]

Orbital Elements at Epoch 2459000.5 (2020-May-31.0) TDB
Reference: JPL 58 (heliocentric ecliptic J2000)
 Element Value Uncertainty (1-sigma)   Units 
e .09329043298179171 3.9332e-08  
a 1.36437121580097 3.2472e-09 au
q 1.237088434331004 5.3753e-08 au
i 23.86965093088661 1.4359e-05 deg
node 98.57728281484809 7.914e-06 deg
peri 283.4275479615273 7.7784e-05 deg
M 257.211668772679 7.9245e-05 deg
tp 2459166.702887317557
(2020-Nov-13.20288732)
0.00012835 TDB
period 582.0995313368518
1.59
2.0781e-06
5.69e-09
d
yr
n .6184509359992487 2.2079e-09 deg/d
Q 1.491653997270936 3.5502e-09 au
  Orbit Determination Parameters
   # obs. used (total)      188  
   data-arc span      6794 days (18.60 yr)  
   first obs. used      2001-12-12  
   last obs. used      2020-07-19  
   planetary ephem.      DE431  
   SB-pert. ephem.      SB431-N16  
   condition code      0  
   norm. resid. RMS      .50384  
   source      ORB  
   producer      Otto Matic  
   solution date      2020-Jul-21 07:02:15  

Additional Information
 Earth MOID = .330384 au 
 Jupiter MOID = 3.79649 au 
 T_jup = 4.746 
[ show covariance matrix ]

Ephemeris | Orbit Diagram | Orbital Elements | Mission Design | Physical Parameters | Discovery Circumstances | Close-Approach Data ]

Physical Parameter Table
Parameter Symbol Value Units Sigma Reference Notes
absolute magnitude H 19.5   n/a MPO437082  
rotation period rot_per 7.45 h n/a LCDB (Rev. 2019-August); Warner et al., 2009 Result based on less than full coverage, so that the period may be wrong by 30 percent or so.
Published Reference List:
[Pravec, P.; Wolf, M.; Sarounova, L. (2017) http://www.asu.cas.cz/~ppravec/neo.htm]

228587 (2002 AP7)          Discovered 2002-Jan-09 by LINEAR at Socorro
Reference: 20091231/Numbers.arcLast Updated: 2010-01-04

[ hide close-approach data ]
Close-Approach Data   ...sorted by Date/Time (TDB)
Date/Time (TDB) Time Uncertainty
(days_HH:MM)
Body Nominal Distance (au) Minimum Distance (au) Maximum Distance (au) V-relative (km/s) V-infinity (km/s) JD (TDB) Time Uncertainty (minutes) Semi-major axis (km) Semi-minor axis (km) range-LOV angle (deg) N-sigma BP Orbit Ref. Reference Modified
1902-Jun-25 10:50 < 00:01 Earth 0.41463603787372 0.414633967215749 0.414638108650646 11.989521713818 11.9889857281711 2415925.951204115 0.471080086862047 373.049355355852 22.0082337275124 -74.2817199268814 2403996.82282905 T 58 CATAB v2.0f-lin.ifort 2020-Jul-21 07:02:23 2020-Jul-21 07:02
1907-Dec-20 04:05 < 00:01 Earth 0.331800895551491 0.331800288203325 0.331801503000317 12.3758935743058 12.3752446864857 2417929.669995517 0.404615468987143 430.310286401362 22.4465316117313 87.2877473293696 1739288.83631037 T 58 CATAB v2.0f-lin.ifort 2020-Jul-21 07:02:23 2020-Jul-21 07:02
1910-Jul-04 07:20 < 00:01 Earth 0.365968347549832 0.365967284339741 0.365969410856573 11.990503135121 11.9898959202188 2418856.805819559 0.41089740538035 332.024017533412 22.5746917131396 -81.6727988985856 2158060.50101607 T 58 CATAB v2.0f-lin.ifort 2020-Jul-21 07:02:23 2020-Jul-21 07:02
1915-Dec-28 13:21 < 00:01 Earth 0.34927785222462 0.349276593026365 0.349279111527029 12.3658711042203 12.3652541862417 2420860.056242840 0.385631267873919 337.60657577373 26.4848108370736 -80.2607782529113 1647451.55969067 T 58 CATAB v2.0f-lin.ifort 2020-Jul-21 07:02:23 2020-Jul-21 07:02
1916-Nov-22 13:00 < 00:01 Mars 0.0950158963619581 0.0950117450832023 0.0950200477375434 10.1585682364145 10.1582716278035 2421190.041463067 0.374586354047278 257.244794984119 28.5438996623313 -36.680061109283 297614.534015073 T 58 CATAB v2.0f-lin.ifort 2020-Jul-21 07:02:23 2020-Jul-21 07:02
1918-Jul-12 20:20 < 00:01 Earth 0.352955736182889 0.352955108473269 0.352956363929946 11.9768575433093 11.9762272239346 2421787.347223753 0.392112175297652 282.469464317427 23.9025368791614 85.881983284818 1965768.98086459 T 58 CATAB v2.0f-lin.ifort 2020-Jul-21 07:02:23 2020-Jul-21 07:02
1924-Jan-06 13:42 < 00:01 Earth 0.408851301062904 0.40884927309206 0.408853329081739 12.3621439377113 12.3616167534491 2423791.070870871 0.396534784661385 253.790588428404 31.8566137237938 -67.5920281669895 1598466.72893178 T 58 CATAB v2.0f-lin.ifort 2020-Jul-21 07:02:23 2020-Jul-21 07:02
1926-Jul-21 22:40 < 00:01 Earth 0.385394942405103 0.385393279352741 0.385396605504237 11.9974585150505 11.9968822430497 2424718.444220330 0.420069574034722 236.821574983745 24.7287429213934 70.3611939318219 1847239.42930724 T 58 CATAB v2.0f-lin.ifort 2020-Jul-21 07:02:23 2020-Jul-21 07:02
1932-Jan-16 22:46 < 00:01 Earth 0.489196964576926 0.489194793298369 0.489199135872502 12.1485065402269 12.1480581937872 2426723.448925880 0.443593886141615 187.447140401337 36.9619512094182 -56.3716952986934 1659438.57068633 T 58 CATAB v2.0f-lin.ifort 2020-Jul-21 07:02:23 2020-Jul-21 07:02
1934-Aug-02 06:43 < 00:01 Earth 0.456416424224171 0.456414181025265 0.456418667444196 11.8837978711851 11.8833066186408 2427651.779614451 0.567887580089605 194.346974032769 25.1660134748921 55.5572238512416 1662141.35537138 T 58 CATAB v2.0f-lin.ifort 2020-Jul-21 07:02:23 2020-Jul-21 07:02
1937-Aug-07 15:45 < 00:01 Mars 0.0842736370086902 0.0842702769017201 0.0842769971775524 10.0208206029215 10.0204815882382 2428753.156425120 0.286556250441613 202.97082040228 18.0037723703616 34.5139884607434 392151.459226071 T 58 CATAB v2.0f-lin.ifort 2020-Jul-21 07:02:23 2020-Jul-21 07:02
1942-Dec-03 11:32 < 00:01 Earth 0.426978558955273 0.426976472260832 0.426980645699834 12.494354111903 12.4938546513891 2430696.980476471 0.410536453633658 259.224571826912 24.5967895350473 66.9331145768589 1663034.86301719 T 58 CATAB v2.0f-lin.ifort 2020-Jul-21 07:02:23 2020-Jul-21 07:02
1945-Jun-17 16:28 < 00:01 Earth 0.467301516703379 0.467299895398695 0.467303138049369 11.9190503876036 11.9185719974568 2431624.185820760 0.349119634809498 241.779007351936 22.1940956537014 -71.1609320646865 2617685.3360461 T 58 CATAB v2.0f-lin.ifort 2020-Jul-21 07:02:23 2020-Jul-21 07:02
1950-Dec-13 08:37 < 00:01 Earth 0.355264982219357 0.355263803120325 0.355266161388362 12.450781471529 12.4501790869437 2433628.859309959 0.280491469353887 274.96511588609 22.246189077195 78.5453446983261 1734789.34005935 T 58 CATAB v2.0f-lin.ifort 2020-Jul-21 07:02:23 2020-Jul-21 07:02
1953-Jun-27 07:25 < 00:01 Earth 0.402070075736217 0.402068951158417 0.402071200353122 11.9916529678094 11.9911003287705 2434555.808716326 0.276687291799929 222.103778105216 21.9760588022138 -76.5002116218775 2362341.93716176 T 58 CATAB v2.0f-lin.ifort 2020-Jul-21 07:02:23 2020-Jul-21 07:02
1958-Dec-21 20:01 < 00:01 Earth 0.330587596098903 0.330587129897101 0.330588062301475 12.3657976780235 12.3651458768895 2436559.334108726 0.22796375473933 233.501433429856 23.1092576809245 89.3772291586423 1716692.87189774 T 58 CATAB v2.0f-lin.ifort 2020-Jul-21 07:02:23 2020-Jul-21 07:02
1961-Jul-06 01:22 < 00:01 Earth 0.360034522331761 0.360033952186317 0.360035092489137 11.9839619070284 11.9833443472802 2437486.556675920 0.230865373750173 179.793362132392 23.1187684691485 -84.6744806930267 2099046.66057751 T 58 CATAB v2.0f-lin.ifort 2020-Jul-21 07:02:23 2020-Jul-21 07:02
1966-Dec-30 05:23 < 00:01 Earth 0.358504550775685 0.358503722928481 0.358505378639947 12.3629110063929 12.3623098222728 2439489.724305708 0.204095896652232 169.446103720257 27.2951035290763 -79.327739559797 1648274.67953985 T 58 CATAB v2.0f-lin.ifort 2020-Jul-21 07:02:23 2020-Jul-21 07:02
1969-Jul-14 12:48 < 00:01 Earth 0.356310465959736 0.356309853517182 0.356311078409621 11.9806669986913 11.9800428125902 2440417.033225322 0.212585758226721 139.749086854103 24.6277918945399 82.4558635035437 1916950.87227865 T 58 CATAB v2.0f-lin.ifort 2020-Jul-21 07:02:23 2020-Jul-21 07:02
1975-Jan-08 07:51 < 00:01 Earth 0.4230168207882 0.423015819318863 0.423017822264534 12.3410988039128 12.3405884048465 2442420.826780815 0.196610320692515 120.63825313603 31.1577118436096 -70.4353986295209 1703575.57965032 T 58 CATAB v2.0f-lin.ifort 2020-Jul-21 07:02:23 2020-Jul-21 07:02
1977-Jul-23 16:16 < 00:01 Earth 0.396604307159009 0.396603370180071 0.39660524414471 11.9958858524781 11.9953257948149 2443348.178073375 0.228315607159813 107.849023067886 25.4195769776394 68.0349316928075 1808992.46632144 T 58 CATAB v2.0f-lin.ifort 2020-Jul-21 07:02:23 2020-Jul-21 07:02
1985-Aug-04 13:44 < 00:01 Earth 0.470956919101651 0.470955904869453 0.470957933336392 11.778510905967 11.7780305649844 2446282.071928717 0.323245001144356 81.2882841710441 25.8670676700409 55.6701416154604 1584815.26002398 T 58 CATAB v2.0f-lin.ifort 2020-Jul-21 07:02:23 2020-Jul-21 07:02
1993-Dec-05 02:59 < 00:01 Earth 0.413411947340064 0.413411269243248 0.413412625441204 12.5072134929694 12.5066981721161 2449326.624526916 0.167531724560071 95.7100696161632 22.6321568834305 74.3275957252939 1723251.81219422 T 58 CATAB v2.0f-lin.ifort 2020-Jul-21 07:02:23 2020-Jul-21 07:02
1996-Jun-19 02:49 < 00:01 Earth 0.45648209869815 0.456481544226441 0.456482653172427 11.9508046518666 11.9503162241136 2450253.617657515 0.121508782522879 87.0163470499988 20.9034971032583 -77.6281403777284 2664046.73854351 T 58 CATAB v2.0f-lin.ifort 2020-Jul-21 07:02:23 2020-Jul-21 07:02
